[[{"header":{"parameterUnit":"m.s-1","parameterCategory":1,"la1":30.2991,"la2":30.254,"lo1":-89.0895,"lo2":-89.0444,"dy":0.0017,"dx":0.0017,"nx":28,"ny":28,"refTime":"2025-11-24T09:00:00:Z","depth":0,"parameterNumber":2,"parameterNumberName":"U-component_of_WINDS"},"data":[0,0,0,0,0,0,0,0,0,0,0,0,0,0,0,0,0,0,0,0,0,0,0,0,0,0,0,0,0,0,0,0,0,0,0,0,0,0,0,0,0,0,0,0,0,0,0,0,0,0,0,0,0,0,0,0,0,0,-1.6976,-1.6976,0,-1.7025,-1.7025,-1.7026,-1.6957,-1.6954,-1.6952,-1.6949,-1.7,-1.7004,-1.7007,0,0,0,0,0,0,0,0,0,0,0,0,0,-1.6822,-1.6825,-1.6976,-1.6976,-1.6977,-1.7025,-1.7026,-1.7026,-1.6957,-1.6954,-1.6951,-1.6948,-1.6999,-1.7003,-1.7008,0,0,0,0,0,0,0,0,0,0,0,0,0,-1.6882,-1.6826,-1.6976,-1.6948,-1.6946,-1.7025,-1.7026,-1.7026,-1.6958,-1.6954,-1.695,-1.6947,-1.6998,-1.7003,-1.7008,-1.7116,0,0,-1.7025,-1.7027,0,0,0,0,0,0,0,0,-1.6879,-1.6888,-1.6952,-1.695,-1.6948,-1.6981,-1.699,-1.7056,-1.6959,-1.6953,-1.6949,-1.6945,-1.6997,-1.7002,-1.7019,-1.7118,-1.712,-1.7025,-1.7029,-1.7031,-1.7033,0,0,0,0,0,0,0,-1.6875,-1.6885,-1.6995,-1.6953,-1.6951,-1.6933,-1.6938,-1.7002,-1.6995,-1.6954,-1.6949,-1.6955,-1.6995,-1.7014,-1.702,-1.7121,-1.7025,-1.703,-1.7034,-1.7036,-1.731,-1.7314,0,0,0,0,0,0,-1.6874,-1.6882,-1.6994,-1.6997,-1.6904,-1.6939,-1.6944,-1.6974,-1.6994,-1.6994,-1.6959,-1.6952,-1.7007,-1.7014,-1.7022,-1.7148,-1.7031,-1.7036,-1.7039,-1.7306,-1.7311,-1.7315,0,0,0,0,0,0,-1.6871,-1.6884,-1.6992,-1.6938,-1.695,-1.6946,-1.698,-1.6977,-1.6996,-1.6998,-1.6996,-1.6979,-1.7004,-1.7014,-1.7093,-1.7149,-1.7039,-1.7044,-1.7301,-1.7307,-1.7313,-1.7404,0,0,0,0,0,0,-1.6866,-1.6884,-1.6925,-1.694,-1.6954,-1.7063,-1.6984,-1.6981,-1.7006,-1.6998,-1.7017,-1.7017,-1.7002,-1.7085,-1.7098,-1.7155,-1.7048,-1.7296,-1.7304,-1.7311,-1.7396,-1.7412,-1.7426,0,0,0,0,0,-1.6861,-1.6948,-1.6927,-1.6941,-1.7005,-1.7066,-1.7074,-1.7055,-1.7011,-1.7052,-1.7053,-1.7016,-1.7141,-1.7094,-1.7108,-1.7167,-1.7293,-1.7302,-1.7311,-1.7389,-1.7409,-1.7426,0,0,0,0,0,0,-1.6941,-1.695,-1.6926,-1.7021,-1.7043,-1.7054,-1.7105,-1.7077,-1.7112,-1.7103,-1.7078,-1.7083,-1.7167,-1.7175,-1.7122,-1.7272,-1.7209,-1.7222,-1.7264,-1.7283,-1.7298,-1.7294,-1.7052,0,0,0,0,0,-1.6969,-1.7018,-1.7023,-1.7106,-1.7119,-1.711,-1.7136,-1.7119,-1.7141,-1.7151,-1.7157,-1.718,-1.7224,-1.7254,-1.7295,-1.7396,-1.7399,-1.7444,-1.7459,-1.7471,-1.7483,-1.7536,-1.7556,-1.7345,-1.7345,-1.7345,0,0,-1.7029,-1.704,-1.7072,-1.7123,-1.7138,-1.7189,-1.7119,-1.7176,-1.7213,-1.7159,-1.7234,-1.724,-1.7263,-1.7354,-1.7394,-1.7363,-1.7541,-1.7483,-1.7493,-1.7497,-1.7547,-1.7567,-1.7585,-1.7351,-1.735,-1.7349,0,0,-1.7163,-1.7176,-1.7247,-1.7263,-1.7287,-1.7281,-1.7298,-1.7313,-1.7314,-1.7389,-1.7349,-1.7393,-1.747,-1.7488,-1.7508,-1.7648,-1.7616,-1.7662,-1.7742,-1.7795,-1.7811,-1.7826,-1.7876,-1.7894,-1.7673,-1.7673,-1.7674,0,-1.7234,-1.7309,-1.7286,-1.7346,-1.7369,-1.7322,-1.7393,-1.741,-1.7446,-1.7463,-1.7428,-1.7523,-1.7535,-1.7629,-1.7663,-1.7681,-1.7699,-1.766,-1.7811,-1.7825,-1.7838,-1.7886,-1.7905,-1.7679,-1.7678,-1.7678,-1.7677,0,-1.7395,-1.7448,-1.7502,-1.7537,-1.7566,-1.7632,-1.7619,-1.7651,-1.7631,-1.7629,-1.7705,-1.7718,-1.7761,-1.7782,-1.7764,-1.7873,-1.7853,-1.7815,-1.7751,-1.7864,-1.7908,-1.7926,-1.7687,-1.7685,-1.7683,-1.7682,0,0,-1.7582,-1.7603,-1.7623,-1.7639,-1.7661,-1.7701,-1.7764,-1.7805,-1.7833,-1.7859,-1.7911,-1.7977,-1.7941,-1.7963,-1.7946,-1.7992,-1.8102,-1.7948,-1.7948,-1.7976,-1.8223,-1.8252,-1.8274,-1.8081,-1.8084,-1.8087,-1.8221,0,-1.7715,-1.7824,-1.7805,-1.791,-1.7958,-1.7914,-1.7968,-1.7988,-1.7987,-1.8027,-1.8026,-1.8073,-1.8023,-1.8035,-1.8079,-1.808,-1.8152,-1.807,-1.8129,-1.8131,-1.8125,-1.8297,-1.8328,-1.8454,-1.8238,-1.8241,-1.8243,0,-1.7886,-1.7919,-1.8029,-1.8043,-1.8062,-1.8112,-1.8147,-1.8187,-1.8208,-1.8204,-1.8228,-1.8203,-1.8265,-1.82,-1.8285,-1.823,-1.8253,-1.8257,-1.8261,-1.8266,-1.8194,-1.8306,-1.8494,-1.8513,-1.827,-1.8268,-1.8266,0,-1.8011,-1.8082,-1.8157,-1.8171,-1.819,-1.8225,-1.8234,-1.8252,-1.8277,-1.8309,-1.8325,-1.8363,-1.8384,-1.8414,-1.84,-1.8354,-1.8487,-1.8422,-1.8486,-1.8486,-1.8516,-1.8515,-1.871,-1.8531,-1.8531,-1.853,-1.853,0,-1.8163,-1.8232,-1.8213,-1.8259,-1.8335,-1.8312,-1.8388,-1.8392,-1.8407,-1.8453,-1.8417,-1.8461,-1.8438,-1.8481,-1.8469,-1.8541,-1.8551,-1.855,-1.8546,-1.8553,-1.8553,-1.8568,-1.8559,-1.8535,-1.8534,-1.8533,-1.8532,0,-1.8315,-1.8306,-1.8384,-1.8395,-1.8399,-1.8454,-1.8463,-1.8506,-1.8502,-1.856,-1.8573,-1.8567,-1.8614,-1.8602,-1.8654,-1.8647,-1.8737,-1.8723,-1.8731,-1.8727,-1.8792,-1.8786,-1.9003,-1.9031,-1.8834,-1.8836,-1.8838,0,-1.8413,-1.8465,-1.8481,-1.8509,-1.8521,-1.8567,-1.8592,-1.8572,-1.86,-1.8627,-1.8667,-1.8711,-1.8746,-1.8824,-1.8824,-1.8863,-1.8849,-1.8923,-1.8855,-1.886,-1.885,-1.8847,-1.8852,-1.8936,-1.8939,-1.894,-1.8942,0,-1.8587,-1.8579,-1.8618,-1.8655,-1.8687,-1.8715,-1.874,-1.8765,-1.8746,-1.878,-1.8828,-1.8854,-1.8907,-1.8951,-1.8987,-1.8997,-1.8967,-1.8963,-1.898,-1.8988,-1.899,-1.899,-1.8767,-1.8958,-1.8957,-1.8955,-1.8955,-1.8954,-1.8715,-1.8759,-1.8777,-1.8821,-1.8837,-1.8861,-1.8902,-1.8903,-1.8942,-1.8983,-1.8969,-1.9024,-1.9042,-1.9088,-1.9101,-1.9144,-1.9116,-1.914,-1.9147,-1.9153,-1.9161,-1.8983,-1.915,-1.915,-1.9149,-1.9149,-1.9149,0,-1.8887,-1.8896,-1.8937,-1.8973,-1.9007,-1.8975,-1.9001,-1.9032,-1.9081,-1.9101,-1.9135,-1.919,-1.9233,-1.9236,-1.9276,-1.9309,-1.9296,-1.932,-1.9318,-1.932,-1.9184,-1.9165,-1.933,-1.933,-1.933,-1.933,-1.933,-1.933,-1.8981,-1.9053,-1.9048,-1.9128,-1.9136,-1.919,-1.9207,-1.9229,-1.9244,-1.9307,-1.9342,-1.9344,-1.9357,-1.9397,-1.9435,-1.9435,-1.9451,-1.9481,-1.9475,-1.9348,-1.933,-1.9313,-1.9295,-1.9484,-1.9485,-1.9608,-1.9609,-1.961]},{"header":{"parameterUnit":"m.s-1","parameterCategory":1,"la1":30.2991,"la2":30.254,"lo1":-89.0895,"lo2":-89.0444,"dy":0.0017,"dx":0.0017,"nx":28,"ny":28,"refTime":"2025-11-24T09:00:00:Z","depth":0,"parameterNumber":3,"parameterNumberName":"V-component_of_WINDS"},"data":[0,0,0,0,0,0,0,0,0,0,0,0,0,0,0,0,0,0,0,0,0,0,0,0,0,0,0,0,0,0,0,0,0,0,0,0,0,0,0,0,0,0,0,0,0,0,0,0,0,0,0,0,0,0,0,0,0,0,-1.616,-1.616,0,-1.6173,-1.6173,-1.6173,-1.6175,-1.6175,-1.6174,-1.6174,-1.6186,-1.6187,-1.6187,0,0,0,0,0,0,0,0,0,0,0,0,0,-1.6134,-1.6134,-1.616,-1.616,-1.616,-1.6173,-1.6173,-1.6173,-1.6175,-1.6175,-1.6174,-1.6174,-1.6186,-1.6187,-1.6187,0,0,0,0,0,0,0,0,0,0,0,0,0,-1.6146,-1.6135,-1.616,-1.6162,-1.6163,-1.6173,-1.6173,-1.6173,-1.6175,-1.6175,-1.6174,-1.6174,-1.6186,-1.6187,-1.6187,-1.6195,0,0,-1.6189,-1.619,0,0,0,0,0,0,0,0,-1.6145,-1.6147,-1.6162,-1.6162,-1.6163,-1.6172,-1.6168,-1.618,-1.6175,-1.617,-1.6174,-1.6174,-1.6182,-1.6183,-1.6185,-1.6196,-1.6196,-1.6189,-1.619,-1.619,-1.619,0,0,0,0,0,0,0,-1.6144,-1.6146,-1.6165,-1.6162,-1.6163,-1.6162,-1.6164,-1.6171,-1.6177,-1.6171,-1.6171,-1.6172,-1.6182,-1.6185,-1.6186,-1.6196,-1.6189,-1.619,-1.619,-1.6191,-1.6211,-1.6211,0,0,0,0,0,0,-1.6143,-1.6146,-1.6165,-1.6165,-1.6153,-1.6163,-1.6164,-1.6169,-1.6177,-1.6178,-1.6172,-1.6172,-1.6184,-1.6185,-1.6186,-1.6194,-1.619,-1.6191,-1.6191,-1.6211,-1.6211,-1.6211,0,0,0,0,0,0,-1.6143,-1.6145,-1.6164,-1.6155,-1.6158,-1.6163,-1.6169,-1.617,-1.6173,-1.6178,-1.6179,-1.6175,-1.6184,-1.6185,-1.6192,-1.6195,-1.6191,-1.6192,-1.6211,-1.6211,-1.6211,-1.6212,0,0,0,0,0,0,-1.6142,-1.6145,-1.6149,-1.6156,-1.6158,-1.6171,-1.6169,-1.617,-1.6174,-1.6174,-1.618,-1.6181,-1.6184,-1.6191,-1.6193,-1.6196,-1.6192,-1.6211,-1.6211,-1.6211,-1.6212,-1.6212,-1.6212,0,0,0,0,0,-1.6141,-1.6149,-1.6149,-1.6151,-1.6163,-1.6171,-1.6173,-1.6176,-1.6174,-1.6177,-1.618,-1.6181,-1.6194,-1.6192,-1.6194,-1.6197,-1.621,-1.6211,-1.6211,-1.6211,-1.6212,-1.6212,0,0,0,0,0,0,-1.6142,-1.615,-1.615,-1.616,-1.6165,-1.6171,-1.6176,-1.6176,-1.6182,-1.6181,-1.6184,-1.6186,-1.6192,-1.6195,-1.6193,-1.6204,-1.6202,-1.6203,-1.6202,-1.6202,-1.6203,-1.6202,-1.6193,0,0,0,0,0,-1.6143,-1.615,-1.6156,-1.6164,-1.6166,-1.617,-1.6174,-1.6176,-1.6181,-1.6183,-1.6187,-1.6191,-1.6196,-1.6199,-1.6204,-1.6212,-1.6212,-1.6214,-1.6215,-1.6215,-1.6216,-1.6218,-1.6219,-1.6212,-1.6212,-1.6212,0,0,-1.6146,-1.6151,-1.6155,-1.6164,-1.6168,-1.6173,-1.6172,-1.6179,-1.6182,-1.6184,-1.619,-1.6193,-1.6198,-1.6205,-1.6208,-1.6208,-1.6217,-1.6216,-1.6216,-1.6216,-1.6218,-1.6219,-1.622,-1.6213,-1.6213,-1.6213,0,0,-1.6154,-1.6159,-1.6166,-1.6169,-1.6175,-1.6177,-1.6179,-1.6185,-1.6187,-1.6193,-1.6194,-1.6198,-1.6207,-1.621,-1.6212,-1.6219,-1.6219,-1.622,-1.6222,-1.6225,-1.6225,-1.6226,-1.6227,-1.6227,-1.6221,-1.6221,-1.6221,0,-1.6157,-1.6166,-1.6169,-1.6175,-1.6178,-1.6179,-1.6185,-1.6188,-1.6195,-1.6197,-1.6196,-1.6206,-1.6209,-1.6216,-1.6217,-1.622,-1.622,-1.622,-1.6225,-1.6225,-1.6226,-1.6227,-1.6228,-1.6221,-1.6221,-1.6221,-1.6221,0,-1.6169,-1.6175,-1.6179,-1.6185,-1.6189,-1.6195,-1.6197,-1.6201,-1.6201,-1.6203,-1.6209,-1.6213,-1.6218,-1.6219,-1.6221,-1.6226,-1.6225,-1.6224,-1.6223,-1.6226,-1.6227,-1.6228,-1.6221,-1.6221,-1.6221,-1.6221,0,0,-1.6179,-1.6185,-1.6187,-1.6189,-1.6194,-1.6199,-1.6203,-1.6208,-1.621,-1.6214,-1.6218,-1.6224,-1.6223,-1.6226,-1.6227,-1.6229,-1.6232,-1.6228,-1.6228,-1.6228,-1.6236,-1.6236,-1.6237,-1.6232,-1.6232,-1.6232,-1.6236,0,-1.6187,-1.6197,-1.6198,-1.6206,-1.621,-1.621,-1.6214,-1.6217,-1.6219,-1.6222,-1.6223,-1.6227,-1.6226,-1.6228,-1.623,-1.6231,-1.6234,-1.6231,-1.6234,-1.6234,-1.6233,-1.6238,-1.6238,-1.6242,-1.6236,-1.6236,-1.6236,0,-1.6199,-1.6202,-1.621,-1.6213,-1.6215,-1.6219,-1.6222,-1.6226,-1.6228,-1.6229,-1.6231,-1.6231,-1.6235,-1.6233,-1.6237,-1.6235,-1.6236,-1.6237,-1.6237,-1.6238,-1.6236,-1.6238,-1.6243,-1.6243,-1.6237,-1.6237,-1.6237,0,-1.6204,-1.6211,-1.6216,-1.6218,-1.6222,-1.6224,-1.6226,-1.6228,-1.623,-1.6233,-1.6234,-1.6237,-1.6238,-1.624,-1.6241,-1.6239,-1.6244,-1.6243,-1.6244,-1.6244,-1.6245,-1.6245,-1.625,-1.6247,-1.6247,-1.6247,-1.6247,0,-1.6213,-1.6217,-1.6219,-1.6222,-1.6227,-1.6227,-1.6232,-1.6233,-1.6235,-1.6237,-1.6237,-1.624,-1.624,-1.6242,-1.6242,-1.6245,-1.6246,-1.6246,-1.6246,-1.6246,-1.6246,-1.6247,-1.6246,-1.6247,-1.6247,-1.6247,-1.6247,0,-1.622,-1.6221,-1.6227,-1.6229,-1.623,-1.6233,-1.6235,-1.6237,-1.6238,-1.6241,-1.6242,-1.6243,-1.6245,-1.6245,-1.6248,-1.6248,-1.6251,-1.6251,-1.625,-1.625,-1.6251,-1.6251,-1.6257,-1.6257,-1.6253,-1.6253,-1.6253,0,-1.6225,-1.6229,-1.6231,-1.6233,-1.6234,-1.6237,-1.6239,-1.6239,-1.6241,-1.6243,-1.6245,-1.6247,-1.6249,-1.6252,-1.6252,-1.6254,-1.6253,-1.6255,-1.6254,-1.6253,-1.6252,-1.6252,-1.6252,-1.6256,-1.6256,-1.6256,-1.6256,0,-1.6234,-1.6234,-1.6237,-1.6239,-1.6241,-1.6243,-1.6245,-1.6246,-1.6246,-1.6248,-1.625,-1.6251,-1.6253,-1.6255,-1.6256,-1.6257,-1.6256,-1.6256,-1.6256,-1.6256,-1.6255,-1.6255,-1.625,-1.6256,-1.6256,-1.6256,-1.6256,-1.6256,-1.624,-1.6243,-1.6244,-1.6247,-1.6248,-1.6249,-1.6251,-1.6251,-1.6253,-1.6255,-1.6255,-1.6256,-1.6257,-1.6258,-1.6259,-1.6259,-1.6259,-1.626,-1.626,-1.626,-1.6259,-1.6255,-1.626,-1.626,-1.626,-1.626,-1.626,0,-1.6249,-1.6249,-1.6251,-1.6253,-1.6255,-1.6254,-1.6255,-1.6256,-1.6258,-1.6258,-1.626,-1.6261,-1.6262,-1.6262,-1.6262,-1.6263,-1.6262,-1.6263,-1.6263,-1.6263,-1.626,-1.626,-1.6263,-1.6263,-1.6263,-1.6263,-1.6263,-1.6263,-1.6253,-1.6256,-1.6256,-1.6259,-1.626,-1.6262,-1.6262,-1.6263,-1.6263,-1.6265,-1.6265,-1.6265,-1.6265,-1.6265,-1.6266,-1.6265,-1.6265,-1.6266,-1.6266,-1.6263,-1.6263,-1.6263,-1.6262,-1.6266,-1.6266,-1.6268,-1.6268,-1.6268]}]]